Weather History for KJNX - January, 2013

Change the Weather History Date:

Wednesday, January 30, 2013

  Actual Average Record
Temperature  
Mean Temperature 62 °F -  
Max Temperature 71 °F 55 °F 80 °F (2002)
Min Temperature 53 °F 31 °F 8 °F (2014)
Degree Days  
Heating Degree Days 3    
Growing Degree Days 12 (Base 50)    
Moisture  
Dew Point 61 °F    
Average Humidity 83    
Maximum Humidity 100    
Minimum Humidity 69    
Precipitation  
Precipitation 0.00 in - - ()
Sea Level Pressure  
Sea Level Pressure 29.83 in    
Wind  
Wind Speed 12 mph (South)    
Max Wind Speed 28 mph    
Max Gust Speed 44 mph    
Visibility 10 miles    
Events      
Averages and records for this station are not official NWS values.
T = Trace of Precipitation, MM = Missing Value Source: NWS Daily Summary

Daily Weather History Graph

Daily Weather History Graph

Search for Another Location

Airport or City:

Trip Planner

Search our weather history database for the weather conditions in past years. The results will help you decide how hot, cold, wet, or windy it might be!

Date:

Astronomy

Jan. 30, 2013 Rise Set
Actual Time 7:14 AM EST 5:39 PM EST
Civil Twilight 6:47 AM EST 6:06 PM EST
Nautical Twilight 6:17 AM EST 6:37 PM EST
Astronomical Twilight 5:47 AM EST 7:07 PM EST
Moon 9:25 PM EST (1/30) 8:50 AM EST (1/30)
Length of Visible Light 11h 18m
Length of Day
10h 24m
Waning Gibbous, 88% of the Moon is Illuminated
Jan 30
Waning Gibbous
Feb 3
Last Quarter
Feb 10
New
Feb 17
First Quarter
Feb 25
Full

Hourly Weather History & Observations

Time (EST) Temp. Dew Point Humidity Pressure Visibility Wind Dir Wind Speed Gust Speed Precip Events Conditions
12:15 AM 53.6 °F 53.6 °F 100% 30.08 in 7.0 mi Calm Calm - N/A   Clear
12:35 AM 55.4 °F 55.4 °F 100% 30.08 in 10.0 mi South 6.9 mph - N/A   Clear
12:55 AM 60.8 °F 59.0 °F 94% 30.08 in 10.0 mi South 6.9 mph - N/A   Clear
1:15 AM 60.8 °F 59.0 °F 94% 30.08 in 10.0 mi SSW 4.6 mph - N/A   Clear
1:35 AM 60.8 °F 60.8 °F 100% 30.06 in 10.0 mi South 6.9 mph - N/A   Mostly Cloudy
1:55 AM 60.8 °F 60.8 °F 100% 30.06 in 10.0 mi South 9.2 mph - N/A   Mostly Cloudy
2:15 AM 60.8 °F 60.8 °F 100% 30.05 in 10.0 mi SSW 9.2 mph - N/A   Overcast
2:35 AM 60.8 °F 60.8 °F 100% 30.05 in 10.0 mi SSW 9.2 mph - N/A   Scattered Clouds
2:55 AM 60.8 °F 60.8 °F 100% 30.04 in 10.0 mi South 6.9 mph - N/A   Mostly Cloudy
3:15 AM 60.8 °F 60.8 °F 100% 30.03 in 10.0 mi South 6.9 mph - N/A   Overcast
3:35 AM 60.8 °F 60.8 °F 100% 30.03 in 10.0 mi South 8.1 mph - N/A   Overcast
3:55 AM 62.6 °F 62.6 °F 100% 30.03 in 10.0 mi South 9.2 mph - N/A   Overcast
4:15 AM 62.6 °F 62.6 °F 100% 30.02 in 10.0 mi South 8.1 mph - N/A   Overcast
4:35 AM 62.6 °F 62.6 °F 100% 30.02 in 10.0 mi South 8.1 mph 17.3 mph N/A   Overcast
4:55 AM 62.6 °F 60.8 °F 94% 30.01 in 10.0 mi South 12.7 mph 18.4 mph N/A   Overcast
5:15 AM 62.6 °F 60.8 °F 94% 30.00 in 10.0 mi South 10.4 mph 16.1 mph N/A   Mostly Cloudy
5:35 AM 62.6 °F 60.8 °F 94% 30.00 in 10.0 mi South 10.4 mph 18.4 mph N/A   Mostly Cloudy
5:55 AM 62.6 °F 60.8 °F 94% 30.00 in 10.0 mi South 10.4 mph 18.4 mph N/A   Mostly Cloudy
6:15 AM 62.6 °F 62.6 °F 100% 29.99 in 10.0 mi South 11.5 mph 17.3 mph N/A   Overcast
6:35 AM 62.6 °F 60.8 °F 94% 29.98 in 10.0 mi South 11.5 mph - N/A   Overcast
6:55 AM 62.6 °F 60.8 °F 94% 29.98 in 10.0 mi South 13.8 mph 17.3 mph N/A   Overcast
7:15 AM 62.6 °F 62.6 °F 100% 29.98 in 10.0 mi South 12.7 mph 19.6 mph N/A   Overcast
7:35 AM 62.6 °F 62.6 °F 100% 29.98 in 10.0 mi South 13.8 mph 19.6 mph N/A   Overcast
7:55 AM 62.6 °F 62.6 °F 100% 29.98 in 10.0 mi South 12.7 mph 24.2 mph N/A   Overcast
8:15 AM 62.6 °F 62.6 °F 100% 29.97 in 10.0 mi South 13.8 mph 26.5 mph N/A   Overcast
8:35 AM 64.4 °F 62.6 °F 94% 29.97 in 10.0 mi South 13.8 mph 19.6 mph N/A   Overcast
8:55 AM 64.4 °F 62.6 °F 94% 29.96 in 10.0 mi South 16.1 mph 25.3 mph N/A   Overcast
9:15 AM 64.4 °F 62.6 °F 94% 29.95 in 10.0 mi South 19.6 mph 24.2 mph N/A   Overcast
9:35 AM 66.2 °F 62.6 °F 88% 29.95 in 10.0 mi South 11.5 mph 25.3 mph N/A   Overcast
9:55 AM 68.0 °F 62.6 °F 83% 29.94 in 10.0 mi South 11.5 mph 21.9 mph N/A   Overcast
10:15 AM 68.0 °F 62.6 °F 83% 29.94 in 10.0 mi South 16.1 mph 24.2 mph N/A   Overcast
10:35 AM 69.8 °F 62.6 °F 78% 29.93 in 10.0 mi South 13.8 mph 28.8 mph N/A   Overcast
10:55 AM 69.8 °F 62.6 °F 78% 29.92 in 10.0 mi South 20.7 mph 25.3 mph N/A   Overcast
11:15 AM 69.8 °F 62.6 °F 78% 29.91 in 10.0 mi SSW 16.1 mph 24.2 mph N/A   Overcast
11:35 AM 69.8 °F 62.6 °F 78% 29.90 in 10.0 mi South 16.1 mph 25.3 mph N/A   Overcast
11:55 AM 69.8 °F 62.6 °F 78% 29.89 in 10.0 mi South 16.1 mph 20.7 mph N/A   Overcast
12:15 PM 69.8 °F 62.6 °F 78% 29.87 in 10.0 mi South 17.3 mph 21.9 mph N/A   Overcast
12:35 PM 69.8 °F 62.6 °F 78% 29.85 in 10.0 mi South 11.5 mph 23.0 mph N/A   Overcast
12:55 PM 69.8 °F 62.6 °F 78% 29.83 in 10.0 mi South 15.0 mph 21.9 mph N/A   Overcast
1:15 PM 69.8 °F 62.6 °F 78% 29.82 in 10.0 mi South 17.3 mph 27.6 mph N/A   Overcast
1:35 PM 69.8 °F 62.6 °F 78% 29.81 in 10.0 mi South 17.3 mph 25.3 mph N/A   Overcast
1:55 PM 69.8 °F 62.6 °F 78% 29.80 in 10.0 mi South 11.5 mph 25.3 mph N/A   Overcast
2:15 PM 71.6 °F 60.8 °F 69% 29.79 in 10.0 mi South 17.3 mph 28.8 mph N/A   Overcast
2:35 PM 71.6 °F 60.8 °F 69% 29.77 in 10.0 mi South 19.6 mph 31.1 mph N/A   Overcast
2:55 PM 71.6 °F 60.8 °F 69% 29.76 in 10.0 mi South 16.1 mph 28.8 mph N/A   Overcast
3:15 PM 71.6 °F 60.8 °F 69% 29.74 in 10.0 mi South 19.6 mph 34.5 mph N/A   Overcast
3:35 PM 71.6 °F 60.8 °F 69% 29.73 in 10.0 mi South 18.4 mph 36.8 mph N/A   Mostly Cloudy
3:55 PM 71.6 °F 60.8 °F 69% 29.72 in 10.0 mi South 17.3 mph 28.8 mph N/A   Overcast
4:15 PM 71.6 °F 60.8 °F 69% 29.71 in 10.0 mi South 20.7 mph 27.6 mph N/A   Overcast
4:35 PM 71.6 °F 60.8 °F 69% 29.69 in 10.0 mi South 18.4 mph 28.8 mph N/A   Overcast
4:55 PM 69.8 °F 60.8 °F 73% 29.70 in 10.0 mi South 17.3 mph 25.3 mph N/A   Overcast
5:15 PM 69.8 °F 60.8 °F 73% 29.69 in 10.0 mi South 18.4 mph 32.2 mph N/A   Overcast
5:35 PM 69.8 °F 60.8 °F 73% 29.68 in 10.0 mi South 21.9 mph 32.2 mph N/A   Overcast
5:55 PM 69.8 °F 60.8 °F 73% 29.68 in 10.0 mi South 21.9 mph 31.1 mph N/A   Overcast
6:15 PM 69.8 °F 60.8 °F 73% 29.67 in 10.0 mi South 20.7 mph 27.6 mph N/A   Overcast
6:35 PM 69.8 °F 60.8 °F 73% 29.66 in 10.0 mi South 23.0 mph 32.2 mph N/A   Overcast
6:55 PM 69.8 °F 60.8 °F 73% 29.64 in 10.0 mi South 23.0 mph 34.5 mph N/A   Overcast
7:15 PM 69.8 °F 60.8 °F 73% 29.63 in - South 19.6 mph - N/A   Unknown
7:35 PM 69.8 °F 60.8 °F 73% 29.61 in 10.0 mi South 26.5 mph 34.5 mph N/A   Overcast
7:55 PM 69.8 °F 60.8 °F 73% 29.60 in 10.0 mi South 24.2 mph 33.4 mph N/A   Overcast
8:15 PM 69.8 °F 60.8 °F 73% 29.59 in 10.0 mi South 27.6 mph 36.8 mph N/A   Overcast
8:35 PM 69.8 °F 60.8 °F 73% 29.58 in 10.0 mi South 19.6 mph 33.4 mph N/A   Overcast
8:55 PM 69.8 °F 60.8 °F 73% 29.57 in 10.0 mi South 23.0 mph 34.5 mph N/A   Overcast
9:15 PM 69.8 °F 60.8 °F 73% 29.56 in 10.0 mi South 25.3 mph 35.7 mph N/A   Overcast
9:35 PM 69.8 °F 60.8 °F 73% 29.54 in 10.0 mi South 25.3 mph 38.0 mph N/A   Unknown
9:55 PM 69.8 °F 60.8 °F 73% 29.52 in - South 23.0 mph - N/A   Unknown
10:15 PM 69.8 °F 60.8 °F 73% 29.51 in 10.0 mi South 21.9 mph 38.0 mph N/A   Overcast
10:35 PM 69.8 °F 60.8 °F 73% 29.50 in 10.0 mi South 23.0 mph 36.8 mph N/A   Overcast
10:55 PM 69.8 °F 62.6 °F 78% 29.48 in 10.0 mi South 20.7 mph 34.5 mph N/A   Unknown
11:15 PM 71.6 °F 62.6 °F 73% 29.46 in 10.0 mi South 25.3 mph 43.7 mph N/A   Overcast
11:35 PM 71.6 °F 62.6 °F 73% 29.45 in 10.0 mi SSW 19.6 mph 39.1 mph N/A   Overcast
11:55 PM 71.6 °F 62.6 °F 73% 29.43 in - South 26.5 mph - N/A   Unknown